Portada
METAR-TAF:

METAR-TAF

Aeroports :

Wagga Wagga, Austràlia

latitud: 35-09S, longitud: 147-27E, altitud: 221 m

Observació

L'informe es va fer fa 18 minuts, a les 01:00 UTC
Vent 12 kt del Oest
Temperatura 20°C
Humitat 43%
Pressió 1016 hPa
Visibilitat 10 km o més
Núvols disperses a una alçada de 4500 ft

METAR: YSWG 140100Z 27012KT 9999 SCT045 20/07 Q1016

Hora: 12:18 (01:18 UTC)


TAF: manca

Observacions i pronòstics meteorològics de més de 4000 aeroports (METAR i TAF).

Les estacions disponibles són els punts grocs i vermells al mapa.

Posi el ratolí al punt desitjat per veure el nom de l'estació.

Feu clic per veure les observacions i els pronòstics meteorològics.

Per canviar el mapa: feu clic els botons verds amb una creu de color negre per apropar; al botó verd amb un guió per allunyar la imatge; o en les fletxes verdes per a mapes adjacents.


METAR-TAF: